Volver al catálogo

COSMOS 1030 DEB

LostHEO
NORAD 32969·DEBRIS·🇷🇺 Russia

Lanzado Sep 6, 1978 desde Plesetsk Cosmodrome

Loading…

Próximos Pases (próximas 24 horas)

TLE

ObsoletoSource: Space-Track

Época: Dec 24, 2010, 21:44 UTC

1 32969U 78083M   10358.90561679  .00000792  00000-0  00000+0 0  9992
2 32969  66.8318  80.5035 5791733 108.4417 310.1706  2.02937979 66709

Sigue COSMOS 1030 DEB en tiempo real con AllMySat

Download on the App Store